Home   Weather   Riverside   Past weeks

Flag for USA Past Weather in Riverside, California, USA — Yesterday and Last 2 Weeks

Now
49 °F

Light rain. Mostly cloudy.


Feels Like: 48 °F
Forecast: 48 / 54 °F
Wind: 3 mph from Southeast

Location: Riverside Municipal Airport

Current Time: Jan 20, 2017 at 4:21:04 am

Latest Report: Jan 20, 2017 at 3:53 am


Visibility: 10 mi

Pressure: 29.77 "Hg

Humidity: 100%

Dew Point: 49 °F

Location of RiversideLocation

Past Weather in Riverside — Graph

°F

Riverside Temperature Yesterday

Maximum temperature yesterday: 59 °F (at 1:53 pm)
Minimum temperature yesterday: 49 °F (at 3:53 am)
Average temperature yesterday: 52 °F

High & Low Weather Summary for the Past Weeks

 TemperatureHumidityPressure
High75 °F (Jan 8, 2:53 pm)100% (Jan 5, 2:00 am)30.21 "Hg (Jan 5, 2:00 am)
Low34 °F (Jan 17, 5:53 am)19% (Jan 17, 12:53 pm)29.81 "Hg (Jan 20, 2:53 am)
Average53 °F79%30.03 "Hg
* Reported Jan 5 2:00 am — Jan 20 2:53 am, Riverside, Weather by CustomWeather, © 2017

Note: Actual official high and low records may vary slightly from our data, if they occured in-between our weather recording intervals... More about our weather records

Advertising

Riverside Weather History for the Previous 24 Hours

Scroll right to see more
 ConditionsComfort  
Time TempWeatherWind HumidityBarometerVisibility
2:53 am
Fri, Jan 20
50 °FLight rain. Mostly cloudy.5 mph96%29.81 "Hg7 mi
1:53 am50 °FLight rain. Overcast.No wind100%29.83 "Hg9 mi
12:53 am49 °FLight rain. Mostly cloudy.No wind100%29.83 "Hg9 mi
10:51 pm
Thu, Jan 19
50 °FRain. Fog.6 mph94%29.90 "Hg3 mi
9:53 pm51 °FMostly cloudy.No wind83%29.88 "Hg10 mi
8:53 pm52 °FMostly cloudy.5 mph80%29.88 "Hg10 mi
7:53 pm52 °FPartly cloudy.3 mph80%29.88 "Hg10 mi
6:53 pm53 °FPassing clouds.6 mph74%29.88 "Hg10 mi
5:53 pm54 °FMostly cloudy.7 mph74%29.88 "Hg10 mi
4:53 pm55 °FScattered clouds.10 mph69%29.87 "Hg10 mi
3:53 pm58 °FPassing clouds.14 mph62%29.85 "Hg10 mi
2:53 pm59 °FPartly sunny.12 mph60%29.85 "Hg10 mi
1:53 pm59 °FSunny.13 mph72%29.86 "Hg10 mi
12:53 pm56 °FPartly sunny.8 mph77%29.88 "Hg10 mi
11:53 am58 °FPartly sunny.12 mph81%29.90 "Hg10 mi
10:53 am56 °FPassing clouds.14 mph90%29.92 "Hg10 mi
9:53 am52 °FMostly cloudy.3 mph100%29.94 "Hg9 mi
8:53 am51 °FLight rain. Fog.5 mph96%29.92 "Hg4 mi
8:28 am51 °FLight rain. Fog.No wind100%29.94 "Hg2 mi
7:53 am50 °FLight rain. Mostly cloudy.No wind100%29.90 "Hg8 mi
7:28 am50 °FLight rain. Fog.No wind100%29.93 "Hg3 mi
6:53 am49 °FRain. Fog.6 mph100%29.90 "Hg4 mi
6:41 am49 °FRain. Fog.No wind100%29.94 "Hg5 mi
6:01 am50 °FRain. Fog.5 mph96%29.94 "Hg6 mi
5:53 am50 °FRain. Fog.5 mph96%29.91 "Hg6 mi
4:53 am49 °FLight rain. Fog.6 mph100%29.93 "Hg4 mi
4:18 am49 °FLight rain. Fog.5 mph97%29.99 "Hg3 mi
Weather by CustomWeather, © 2017

See weather overviewHow to use our weather pages